map of ANU home
ANU - Airport
Location
City:  Antigua, Antigua Island, Antigua and Barbuda
Near (Alt.):Saint John's
Name:V.C. Bird International Airport
Old (Alt.):Coolidge International, Coolidge AFB
ICAO:TAPA
IATA:ANU

Details
Type:Airport (Aerodrome, Airfield)
Use:Military, International (customs port of entry)
Latitude:1708'12"N (17.136667)
Longitude:6147'34"W (-61.792777)
Elevation:62 ft (19 m)
Variation:14.77W (WMM2015 magnetic declination)
-0.02 annual change
Runways:1
Longest:8980 × 148 ft (2737 × 45 m)

Time
Time Zone:UTC-4
Local Time:

Weather
METAR:TAPA 171700Z 09011KT 9999 SCT018 29/22 Q1015 NOSIG
TAF:TAPA 170500Z 1700/1724 07013KT 9999 SCT019 PROB40
TEMPO 1706/1712 SHRA BKN014 PROB30
TEMPO 1708/1712 05015G25KT

Related Locations
Nearby:
Farthest:PRD: 12208 mi / 19647 km
Pardoo, WA, AU

Find:

   beyond  
but within

Other Information
Maps:
NOTAMs:
Links:
Sources:

  
flag of Antigua and Barbuda   

Airport Diagram

Airport diagram for ANU

Airport diagram PDF

Sectional Chart

Flight Planning
at skyvector.com

Satellite Image

Google Maps Satellite view

 

Copyright © 2004-2017 Karl L. Swartz. All rights reserved.
The Great Circle Mapper name and logo are trademarks of the Great Circle Mapper.
All other trademarks mentioned herein belong to their respective owners.
Please see credits for attibutions and further copyright information.

  Follow gcmap on Facebook Follow gcmap on Twitter Follow gcmap on Google+ GCmap on LinkedIn

hCard Microformat

Geo Microformat